Location: アルンシュタイン
(50.0000°N, 10.0000°E)
Time: 16:30:29
(UTC+02:00)

Vanguard 1 - Pass Details

Date: 18 September 2024
Orbit: 649 x 3825 km, 34.3° (Epoch: 02 October)

Event Time Altitude Azimuth Distance (km) Brightness Sun altitude
Rises 11:32:08 0° 212° (SSW) 7,220 14.8 37.0°
Reaches altitude 10° 11:39:17 10° 199° (SSW) 5,634 14.6 37.6°
Maximum altitude 11:49:04 20° 160° (SSE) 3,875 14.8 38.3°
Drops below altitude 10° 11:56:00 10° 118° (ESE) 3,837 13.9 38.8°
Sets 11:59:34 0° 101° (ESE) 4,385 13.8 39.1°
